Home > Weather > Fort Wayne > Past weeks

Flag for U.S.A. Weather for the Past 2 Weeks in Fort Wayne, Indiana, U.S.A.

Now
32 °F

Passing clouds.


Feels Like: 27 °F
Forecast: 28 / 39 °F
Wind: 5 mph from Southwest

Location: Fort Wayne International Airport

Current Time: Feb 8, 2016 at 4:32:04 AM

Latest Report: Feb 8, 2016 at 3:54 AM


Visibility: 10 mi

Pressure: 29.67 "Hg

Humidity: 88%

Dew point: 29 °F

Location of Fort WayneLocation

Historic Weather in Fort Wayne — Graph

°F

Fort Wayne Temperature Yesterday

Maximum temperature yesterday: 49 °F (at 3:54 PM)
Minimum temperature yesterday: 30 °F (at 3:54 AM)
Average temperature yesterday: 39 °F

High & Low Weather Summary for the Past Weeks

 TemperatureHumidityPressure
High58 °F (Feb 2, 11:54 PM)93% (Feb 1, 10:54 PM)30.40 "Hg (Feb 1, 10:54 PM)
Low16 °F (Jan 24, 5:54 AM)46% (Feb 7, 3:54 PM)29.46 "Hg (Feb 3, 1:54 AM)
Average34 °F77%29.98 "Hg
* Reported Jan 24 2:54 AM — Feb 8 2:54 AM, Fort Wayne, Weather by CustomWeather, © 2016

Note: Actual official high and low records may vary slightly from our data, if they occured in-between our weather recording intervals... More about our weather records

Advertising

Fort Wayne Weather History for the Previous 24 Hours

 ConditionsComfort  
Time TempWeatherWind HumidityBarometerVisibility
2:54 AM
Mon, Feb 8
32 °FOvercast.7 mph92%29.70 "Hg10 mi
1:54 AM33 °FMostly cloudy.6 mph92%29.72 "Hg10 mi
12:54 AM33 °FPassing clouds.8 mph88%29.74 "Hg10 mi
11:54 PM
Sun, Feb 7
36 °FMostly cloudy.8 mph82%29.74 "Hg10 mi
10:54 PM36 °FPassing clouds.9 mph82%29.76 "Hg10 mi
9:54 PM40 °FOvercast.13 mph73%29.78 "Hg10 mi
8:54 PM41 °FPassing clouds.13 mph70%29.78 "Hg10 mi
7:54 PM42 °FOvercast.9 mph71%29.80 "Hg10 mi
6:54 PM41 °FOvercast.7 mph67%29.81 "Hg10 mi
5:54 PM45 °FPartly sunny.12 mph56%29.80 "Hg10 mi
4:54 PM48 °FPartly sunny.17 mph48%29.80 "Hg10 mi
3:54 PM49 °FPartly sunny.17 mph46%29.80 "Hg10 mi
2:54 PM47 °FMore clouds than sun.18 mph50%29.81 "Hg10 mi
1:54 PM47 °FOvercast.18 mph54%29.84 "Hg10 mi
12:54 PM47 °FMostly cloudy.21 mph54%29.88 "Hg10 mi
11:54 AM45 °FBroken clouds.21 mph58%29.94 "Hg10 mi
10:54 AM40 °FMostly cloudy.15 mph65%29.98 "Hg10 mi
9:54 AM37 °FPartly sunny.13 mph67%29.99 "Hg10 mi
8:54 AM35 °FScattered clouds.12 mph72%29.99 "Hg10 mi
7:54 AM32 °FBroken clouds.9 mph79%30.01 "Hg10 mi
6:54 AM33 °FPartly cloudy.10 mph75%30.03 "Hg10 mi
5:54 AM32 °FPassing clouds.12 mph79%30.06 "Hg10 mi
4:54 AM31 °FPassing clouds.10 mph82%30.08 "Hg10 mi
Weather by CustomWeather, © 2016

See weather overviewHow to use our weather pages